EW3099 Weather Reports


time (UTC)temp
F
wind
direction
speed
knots
gust
knots
rain 1hr
in
rain 24hr
in
rain mn
in
humidity
%
barometer
mb
20260506143033 64 153 0.0 3.5 0.00 0.00 0.00 48 1007.5
20260506141524 64 108 0.0 2.6 0.00 0.00 0.00 47 1007.7
20260506140022 63 97 0.0 3.5 0.00 0.00 0.00 48 1007.7
20260506134520 62 65 0.9 3.5 0.00 0.00 0.00 48 1007.8
20260506133017 62 120 0.9 4.3 0.00 0.00 0.00 49 1007.7
20260506131515 61 3 0.0 1.7 0.00 0.00 0.00 50 1007.6
20260506130014 61 275 0.0 1.7 0.00 0.00 0.00 50 1007.6
20260506124513 61 136 0.0 0.9 0.00 0.00 0.00 49 1007.6
20260506123053 60 141 0.0 0.9 0.00 0.00 0.00 50 1007.9
20260506121551 59 70 0.0 0.9 0.00 0.00 0.00 49 1008.2
20260506120031 58 81 0.0 1.7 0.00 0.00 0.00 48 1008.2
20260506114538 57 57 0.0 0.9 0.00 0.00 0.00 43 1008.1
20260506113012 56 155 0.0 0.0 0.00 0.00 0.00 42 1008.0
20260506111513 54 145 0.0 0.0 0.00 0.00 0.00 43 1008.1
20260506110100 53 145 0.0 0.0 0.00 0.00 0.00 43 1008.2
20260506104552 53 145 0.0 0.0 0.00 0.00 0.00 42 1008.3
20260506103034 52 145 0.0 0.0 0.00 0.00 0.00 41 1008.1
20260506101534 52 145 0.0 0.0 0.00 0.00 0.00 40 1008.1
20260506100015 52 145 0.0 0.0 0.00 0.00 0.00 40 1008.1
20260506094514 52 145 0.0 0.0 0.00 0.00 0.00 40 1007.9
20260506093057 52 145 0.0 0.0 0.00 0.00 0.00 42 1007.9
20260506091551 53 145 0.0 0.0 0.00 0.00 0.00 45 1008.0
20260506090031 53 145 0.0 0.0 0.00 0.00 0.00 47 1008.1
20260506084529 53 145 0.0 0.0 0.00 0.00 0.00 52 1008.1
20260506083014 54 145 0.0 0.0 0.00 0.00 0.00 55 1008.3
20260506081514 54 145 0.0 0.0 0.00 0.00 0.00 56 1008.3
20260506073009 54 145 0.0 0.0 0.00 0.00 0.00 61 1008.5
20260506071508 55 145 0.0 0.0 0.00 0.00 0.00 63 1008.4
20260506061542 57 145 0.0 0.0 0.00 0.00 0.00 66 1008.4
20260506044547 57 145 0.0 0.0 0.00 0.00 0.00 66 1008.8
20260506043023 57 145 0.0 0.0 0.00 0.00 0.00 65 1008.8
20260506041521 58 145 0.0 0.0 0.00 0.00 0.00 64 1008.8
20260506040005 58 145 0.0 0.0 0.00 0.00 0.00 64 1008.8
20260506034503 59 145 0.0 0.0 0.00 0.00 0.00 63 1008.9
20260506033101 59 145 0.0 0.0 0.00 0.00 0.00 62 1008.9
20260506031556 59 145 0.0 0.0 0.00 0.00 0.00 62 1008.7
20260506030043 60 145 0.0 0.0 0.00 0.00 0.00 61 1008.8
20260506024528 60 144 0.0 0.0 0.00 0.00 0.00 61 1008.8
20260506023026 60 96 0.0 0.0 0.00 0.00 0.00 60 1008.8
20260506021509 61 96 0.0 0.0 0.00 0.00 0.00 58 1008.7
20260506020007 62 86 0.0 0.0 0.00 0.00 0.00 57 1008.6
20260506014549 62 84 0.0 1.7 0.00 0.00 0.00 57 1008.4
20260506013048 63 145 0.0 0.9 0.00 0.00 0.00 56 1008.3
20260506011537 63 105 0.0 0.0 0.00 0.00 0.00 55 1008.1
20260506010034 64 177 0.0 4.3 0.00 0.00 0.00 54 1007.9
20260506004522 64 153 0.0 0.0 0.00 0.00 0.00 53 1007.8
20260506003015 64 162 0.0 0.0 0.00 0.00 0.00 53 1007.6
20260506001555 65 150 0.0 0.9 0.00 0.00 0.00 53 1007.2
20260506000058 65 153 0.0 0.9 0.00 0.00 0.00 52 1007.2
20260505234540 66 160 0.0 0.9 0.00 0.00 0.00 51 1007.0
20260505233038 66 120 0.0 0.9 0.00 0.00 0.00 50 1006.8
20260505231526 67 152 0.0 0.0 0.00 0.00 0.00 49 1006.6
20260505230026 68 139 0.0 0.9 0.00 0.00 0.00 48 1006.5
20260505224600 68 155 0.0 1.7 0.00 0.00 0.00 47 1006.3
20260505223059 69 111 0.0 1.7 0.00 0.00 0.00 47 1006.3
20260505221541 69 123 0.9 1.7 0.00 0.00 0.00 47 1006.6
20260505220043 70 145 0.9 3.5 0.00 0.00 0.00 45 1006.3
20260505214535 71 167 0.9 3.5 0.00 0.00 0.00 45 1006.3
20260505213030 71 127 0.9 4.3 0.00 0.00 0.00 44 1006.2
20260505211527 72 158 0.9 3.5 0.00 0.00 0.00 44 1006.1
20260505210028 72 144 0.0 3.5 0.00 0.00 0.00 43 1006.0
20260505204532 72 166 0.0 3.5 0.00 0.00 0.00 43 1006.2
20260505203030 73 126 0.9 4.3 0.00 0.00 0.00 43 1006.2
20260505201521 74 176 1.7 5.2 0.00 0.00 0.00 40 1006.3
20260505200034 75 188 0.9 3.5 0.00 0.00 0.00 40 1006.3
20260505194504 75 134 0.0 4.3 0.00 0.00 0.00 41 1006.6
20260505193000 75 124 1.7 4.3 0.00 0.00 0.00 40 1006.6
20260505191543 76 141 0.9 4.3 0.00 0.00 0.00 39 1006.8
20260505190043 77 121 1.7 3.5 0.00 0.00 0.00 38 1007.0
20260505184520 77 131 0.0 4.3 0.00 0.00 0.00 38 1007.1
20260505183018 78 120 0.9 6.1 0.00 0.00 0.00 37 1007.1
20260505181600 77 137 1.7 5.2 0.00 0.00 0.00 37 1007.1
20260505180058 78 94 0.9 5.2 0.00 0.00 0.00 36 1007.2
20260505174542 78 102 0.9 3.5 0.00 0.00 0.00 36 1007.2
20260505173036 77 98 0.9 3.5 0.00 0.00 0.00 36 1007.3
20260505171522 77 155 1.7 4.3 0.00 0.00 0.00 36 1007.4
20260505170018 77 120 0.9 4.3 0.00 0.00 0.00 36 1007.6
20260505164616 76 10 0.9 3.5 0.00 0.00 0.00 37 1007.7
20260505163058 76 49 0.9 3.5 0.00 0.00 0.00 37 1008.0
20260505161530 75 176 0.9 3.5 0.00 0.00 0.00 40 1008.3
20260505153003 72 174 0.0 2.6 0.00 0.00 0.00 42 1008.7
20260505151546 71 139 0.0 3.5 0.00 0.00 0.00 43 1008.9